Location: Miami
(25.7742°N, 80.1936°W)
Time: 01:54:50
(UTC-04:00)

ISS - Pass Details

Date: 22 June 2025
Orbit: 413 x 417 km, 51.6° (Epoch: 16 July)

Event Time Altitude Azimuth Distance (km) Brightness Sun altitude
Exits shadow 04:43:39 13° 322° (NW) 1,300 -1.3 -20.9°
Drops below altitude 10° 04:45:19 10° 351° (N) 1,490 -0.6 -20.6°
Sets 04:48:17 0° 20° (NNE) 2,357 1.1 -20.1°
